Regional Weather Roundup
Issued by NWS

Home | Current Version | Previous Version | Text Only | Print | Product List | Glossary On
Versions: 1 2 3 4 5 6 7 8 9 10 11 12 13 14 15 16 17 18 19 20 21 22 23 24 25 26 27
000
ASUS45 KREV 250810
RWRNV
NEVADA REGIONAL WEATHER ROUNDUP
NATIONAL WEATHER SERVICE RENO NV
100 AM PDT FRI APR 25 2014

NOTE: "FAIR" INDICATES FEW OR NO CLOUDS BELOW 12,000 FEET WITH NO
SIGNIFICANT WEATHER AND/OR OBSTRUCTIONS TO VISIBILITY.

NVZ001-003-004-250900-
WESTERN NEVADA

CITY           SKY/WX    TMP DP  RH WIND       PRES   REMARKS
RENO           MOCLDY    52  31  44 S21G41    29.84F
CARSON CITY    CLOUDY    48  28  46 SW15G31   29.88S
MINDEN         CLOUDY    50  30  46 S21G29    29.88F
SLIDE MTN        N/A     27  25  93 W63         N/A
FALLON         CLOUDY    56  26  31 SW15      29.83F
LOVELOCK       CLOUDY    54  22  28 SW3       29.82F
HAWTHORNE      MOCLDY    57  30  35 CALM      29.84S
$$

NVZ002-CAZ072-073-250900-
NORTHERN AND CENTRAL SIERRA

CITY           SKY/WX    TMP DP  RH WIND       PRES   REMARKS
S. LAKE TAHOE  LGT RAIN  39  31  72 S13G24    29.90F
TRUCKEE        LGT RAIN  37  32  81 S15G22    29.91F
SQUAW VLY 8000 NOT AVBL
BLUE CANYON    RAIN      39  36  89 SW12G23   29.96F VSB 1
MAMMOTH LAKES  FAIR      46  25  42 S21G38    29.93S
BRIDGEPORT     MOCLDY    42  23  46 SW12G23   29.90F
$$

NVZ030-031-036-250900-
NORTHERN NEVADA

CITY           SKY/WX    TMP DP  RH WIND       PRES   REMARKS
ELKO           CLOUDY    49  37  63 SW7       29.86S
WINNEMUCCA     CLOUDY    51  25  36 W10       29.82F
WENDOVER       CLOUDY    54  32  43 N7        29.86F
$$

NVZ035-037-250900-
CENTRAL NEVADA

CITY           SKY/WX    TMP DP  RH WIND       PRES   REMARKS
ELY            CLOUDY    43  26  51 S9        29.91F
EUREKA           N/A     46  38  73 W3        29.91R
$$

NVZ013-014-250900-
SOUTH CENTRAL NEVADA

CITY           SKY/WX    TMP DP  RH WIND       PRES   REMARKS
TONOPAH        CLOUDY    53  28  38 N8        29.87F
$$

NVZ017-020-022-250900-
SOUTHERN NEVADA

CITY           SKY/WX    TMP DP  RH WIND       PRES   REMARKS
LAS VEGAS      PTCLDY    73  12   9 S16G24    29.75S
N. LAS VEGAS   PTCLDY    72  13  10 SW10      29.77F
NELLIS AFB     PTCLDY    74  12   9 S15       29.76F
HENDERSON      PTCLDY    68  12  11 S13       29.83R
MERCURY        PTCLDY    70  17  13 S13G20    29.79F
$$



USA.gov is the U.S. government's official web portal to all federal, state and local government web resources and services.